sat.trackr.live / text

‹ back to catalog

STARLINK-35532

NORAD 66091 · 2025-236F

PAYLOAD ACTIVE UNKNOWN

§ Identity

Operator
Country
US
Launch date
2025-10-19
Launch site
AFWTR
Launch vehicle
Mass (kg)
RCS (m²)

Purposes: comms

External: N2YO · Heavens-Above · Gunter

§ Orbital elements

Epoch: 2026-05-25T03:14:15.105984Z

Period
94.10 min
Inclination
53.1569°
Eccentricity
0.0001317
Mean motion
15.30210148 rev/d
Perigee alt
474.3 km
Apogee alt
476.1 km
Semi-major
6,853.3 km
B*
8.8690e-4
RAAN
108.4376°
Arg perigee
90.5945°
Mean anomaly
269.5206°
Rev number
3,465

§ Raw data

STARLINK-355321 66091U 25236F   26145.13489706  .00026008  00000+0  88690-3 0  99952 66091  53.1569 108.4376 0001317  90.5945 269.5206 15.30210148 34659

JSON: /api/v1/satellites/66091 · /tle

For live sub-satellite position, see the globe view (requires WebGL).

§ Visibility from observer

Set your observer location to see the next 7 days of passes ≥ 10°. The values pass through the URL so the page stays shareable.

No JS? Fill the form by hand. The geolocation button needs JavaScript.